This demonstration page uses our WeatherBlox Daily Observations layout. Learn more.

Left ArrowRight Arrow

Hourly Observations for April 8, 2018

Temp ( °F °C ) Dew Point ( °F °C ) Humidity (%) Winds ( mph kmh ) Pressure ( in mb ) Visibility ( mi km ) Precip ( " mm )
12:56 am 00:56 Cloudy 32 0 14 -10 47 47 SSE 18 30 29.95 1014 10 16 0.00 0.00
1:56 am 01:56 Cloudy 32 0 15 -9.4 50 50 SSE 20 31 29.90 1013 10 16 0.00 0.00
2:56 am 02:56 Cloudy 33 0.6 15 -9.4 47 47 S 14 22 29.90 1013 10 16 0.00 0.00
3:56 am 03:56 Cloudy 33 0.6 16 -8.9 49 49 SE 16 26 29.82 1010 10 16 0.00 0.00
4:56 am 04:56 Clear 33 0.6 16 -8.9 49 49 SSE 20 31 29.81 1010 10 16 0.00 0.00
5:56 am 05:56 Clear 33 0.6 17 -8.3 52 52 SSE 25 41 29.74 1007 10 16 0.00 0.00
6:56 am 06:56 Clear 33 0.6 18 -7.8 54 54 S 23 37 29.73 1007 10 16 0.00 0.00
7:56 am 07:56 Mostly Sunny 34 1.1 19 -7.2 54 54 S 25 41 29.69 1006 10 16 0.00 0.00
8:56 am 08:56 Sunny 35 1.7 21 -6.1 57 57 S 28 44 29.71 1006 10 16 0.00 0.00
9:56 am 09:56 Mostly Cloudy 36 2.2 23 -5 59 59 S 28 44 29.69 1005 10 16 0.00 0.00
10:56 am 10:56 Sunny 39 3.9 24 -4.4 55 55 SSW 23 37 29.69 1006 10 16 0.00 0.00
11:56 am 11:56 Partly Cloudy 40 4.4 25 -3.9 55 55 SSW 20 31 29.69 1006 10 16 0.00 0.00
12:56 pm 12:56 Sunny 44 6.7 27 -2.8 51 51 SSW 18 30 29.68 1005 10 16 0.00 0.00
1:56 pm 13:56 Sunny 49 9.4 30 -1.1 48 48 VRB 7 11 29.66 1005 10 16 0.00 0.00
2:56 pm 14:56 Sunny 56 13.3 32 0 40 40 NNW 18 30 29.64 1004 10 16 0.00 0.00
3:56 pm 15:56 Partly Cloudy 59 15 33 0.6 38 38 NNW 9 15 29.64 1004 10 16 0.00 0.00
4:56 pm 16:56 Mostly Cloudy 62 16.7 31 -0.6 31 31 NNW 24 39 29.65 1004 10 16 0.00 0.00
5:56 pm 17:56 Sunny 60 15.6 29 -1.7 31 31 N 23 37 29.69 1005 10 16 0.00 0.00
6:56 pm 18:56 Sunny 56 13.3 28 -2.2 34 34 N 26 43 29.73 1007 10 16 0.00 0.00
7:56 pm 19:56 Sunny 49 9.4 29 -1.7 46 46 N 15 24 29.79 1009 10 16 0.00 0.00
8:56 pm 20:56 Clear 41 5 27 -2.8 57 57 N 15 24 29.85 1011 10 16 0.00 0.00
9:56 pm 21:56 Clear 36 2.2 26 -3.3 67 67 N 15 24 29.90 1013 10 16 0.00 0.00
10:56 pm 22:56 Clear 34 1.1 25 -3.9 70 70 N 15 24 29.93 1014 10 16 0.00 0.00
11:56 pm 23:56 Mostly Clear 32 0 24 -4.4 73 73 N 14 22 29.95 1014 10 16 0.00 0.00

Powered by AerisWeather